Weather History for KMOX - May, 2013

Change the Weather History Date:

Saturday, May 18, 2013

  Actual Average Record
Temperature  
Mean Temperature 72 °F -  
Max Temperature 86 °F 64 °F 96 °F (2012)
Min Temperature 57 °F 41 °F 28 °F (2002)
Cooling Degree Days 6    
Growing Degree Days 22 (Base 50)    
Moisture  
Dew Point 61 °F    
Average Humidity 75    
Maximum Humidity 100    
Minimum Humidity 37    
Precipitation  
Precipitation 0.04 in - - ()
Sea Level Pressure  
Sea Level Pressure 29.80 in    
Wind  
Wind Speed 15 mph (SE)    
Max Wind Speed 23 mph    
Max Gust Speed 29 mph    
Visibility 8 miles    
Events Rain , Thunderstorm    
Averages and records for this station are not official NWS values.
T = Trace of Precipitation, MM = Missing Value Source: NWS Daily Summary

Daily Weather History Graph

Daily Weather History Graph

Search for Another Location

Airport or City:

Trip Planner

Search our weather history database for the weather conditions in past years. The results will help you decide how hot, cold, wet, or windy it might be!

Date:

Astronomy

May. 18, 2013 Rise Set
Actual Time 5:49 AM CDT 8:51 PM CDT
Civil Twilight 5:14 AM CDT 9:27 PM CDT
Nautical Twilight 4:29 AM CDT 10:12 PM CDT
Astronomical Twilight 3:35 AM CDT 11:07 PM CDT
Moon 1:36 PM CDT (5/18) 2:03 AM CDT (5/18)
Length of Visible Light 16h 12m
Length of Day
15h 02m
First Quarter, 55% of the Moon is Illuminated
May 18
First Quarter
May 24
Full
May 31
Last Quarter
Jun 8
New
Jun 16
First Quarter

Hourly Weather History & Observations

Time (CDT) Temp. Heat Index Dew Point Humidity Pressure Visibility Wind Dir Wind Speed Gust Speed Precip Events Conditions
12:12 AM 59.0 °F - 55.4 °F 88% 29.86 in 5.0 mi ESE 16.1 mph 20.7 mph N/A   Overcast
12:32 AM 57.2 °F - 55.4 °F 94% 29.86 in 5.0 mi SE 17.3 mph - N/A   Overcast
12:52 AM 59.0 °F - 55.4 °F 88% 29.86 in 5.0 mi ESE 15.0 mph 20.7 mph N/A   Overcast
1:12 AM 59.0 °F - 55.4 °F 88% 29.86 in 5.0 mi ESE 16.1 mph 20.7 mph N/A Thunderstorm Overcast
1:32 AM 59.0 °F - 55.4 °F 88% 29.84 in 5.0 mi ESE 15.0 mph 23.0 mph N/A Thunderstorm Overcast
1:52 AM 59.0 °F - 55.4 °F 88% 29.83 in 5.0 mi ESE 15.0 mph - N/A   Overcast
2:12 AM 59.0 °F - 55.4 °F 88% 29.85 in 5.0 mi SE 15.0 mph - N/A   Overcast
2:32 AM 60.8 °F - 57.2 °F 88% 29.87 in 5.0 mi SSE 9.2 mph - N/A   Overcast
2:52 AM 60.8 °F - 57.2 °F 88% 29.85 in 7.0 mi SE 11.5 mph - N/A Thunderstorm Overcast
3:12 AM 60.8 °F - 57.2 °F 88% 29.83 in 5.0 mi ESE 9.2 mph - N/A   Scattered Clouds
3:32 AM 59.0 °F - 55.4 °F 88% 29.82 in 5.0 mi East 11.5 mph - N/A   Clear
3:52 AM 60.8 °F - 57.2 °F 88% 29.81 in 5.0 mi ESE 23.0 mph 27.6 mph N/A   Scattered Clouds
4:12 AM 60.8 °F - 57.2 °F 88% 29.84 in 7.0 mi ESE 16.1 mph 28.8 mph N/A   Scattered Clouds
4:32 AM 60.8 °F - 57.2 °F 88% 29.83 in 7.0 mi ESE 16.1 mph - N/A   Scattered Clouds
4:52 AM 60.8 °F - 57.2 °F 88% 29.82 in 7.0 mi ESE 13.8 mph - N/A   Clear
5:12 AM 60.8 °F - 57.2 °F 88% 29.86 in 7.0 mi ESE 12.7 mph - N/A   Clear
5:32 AM 60.8 °F - 57.2 °F 88% 29.86 in 7.0 mi ESE 11.5 mph - N/A   Scattered Clouds
5:52 AM 60.8 °F - 57.2 °F 88% 29.87 in 5.0 mi East 9.2 mph - N/A   Mostly Cloudy
6:12 AM 60.8 °F - 57.2 °F 88% 29.85 in 5.0 mi East 15.0 mph - N/A   Mostly Cloudy
6:32 AM 60.8 °F - 57.2 °F 88% 29.86 in 3.0 mi East 12.7 mph 21.9 mph N/A Rain , Thunderstorm Light Thunderstorms and Rain
6:52 AM 60.8 °F - 57.2 °F 88% 29.86 in 2.5 mi East 13.8 mph - 0.02 in Rain Light Rain
7:12 AM 60.8 °F - 57.2 °F 88% 29.86 in 2.5 mi East 17.3 mph - N/A Rain Light Rain
7:31 AM 60.8 °F - 59.0 °F 94% 29.86 in 2.5 mi East 16.1 mph - 0.01 in Rain Light Rain
7:52 AM 60.8 °F - 59.0 °F 94% 29.86 in 2.5 mi ESE 13.8 mph - 0.02 in Rain Light Rain
8:12 AM 60.8 °F - 60.8 °F 100% 29.86 in 2.5 mi ESE 13.8 mph - N/A   Scattered Clouds
8:32 AM 62.6 °F - 60.8 °F 94% 29.85 in 3.0 mi SE 17.3 mph - N/A   Scattered Clouds
8:52 AM 64.4 °F - 62.6 °F 94% 29.85 in 4.0 mi SE 16.1 mph - N/A Thunderstorm Scattered Clouds
9:12 AM 64.4 °F - 62.6 °F 94% 29.85 in 4.0 mi SE 16.1 mph - N/A   Scattered Clouds
9:32 AM 66.2 °F - 64.4 °F 94% 29.83 in 5.0 mi SE 17.3 mph 20.7 mph N/A   Mostly Cloudy
9:52 AM 68.0 °F - 64.4 °F 88% 29.84 in 7.0 mi SSE 18.4 mph - N/A   Scattered Clouds
10:12 AM 69.8 °F - 64.4 °F 83% 29.84 in 7.0 mi SSE 19.6 mph - N/A   Scattered Clouds
10:32 AM 71.6 °F - 64.4 °F 78% 29.83 in 10.0 mi SSE 18.4 mph 23.0 mph N/A   Clear
10:52 AM 71.6 °F - 64.4 °F 78% 29.82 in 10.0 mi SSE 17.3 mph 20.7 mph N/A   Clear
11:12 AM 71.6 °F - 64.4 °F 78% 29.81 in 10.0 mi SSE 20.7 mph - N/A   Scattered Clouds
11:32 AM 73.4 °F - 64.4 °F 73% 29.79 in 10.0 mi SSE 20.7 mph - N/A   Scattered Clouds
11:52 AM 73.4 °F - 62.6 °F 69% 29.80 in 10.0 mi SSE 17.3 mph - N/A   Clear
12:12 PM 73.4 °F - 62.6 °F 69% 29.80 in 10.0 mi SSE 17.3 mph - N/A   Clear
12:32 PM 77.0 °F - 62.6 °F 61% 29.80 in 10.0 mi SSE 17.3 mph - N/A   Clear
12:52 PM 78.8 °F - 62.6 °F 57% 29.80 in 10.0 mi South 16.1 mph 20.7 mph N/A   Clear
1:12 PM 78.8 °F - 62.6 °F 57% 29.79 in 10.0 mi SSE 18.4 mph - N/A   Clear
1:32 PM 78.8 °F - 62.6 °F 57% 29.78 in 10.0 mi SSE 19.6 mph 23.0 mph N/A   Clear
1:52 PM 78.8 °F - 62.6 °F 57% 29.79 in 10.0 mi SSE 16.1 mph 24.2 mph N/A   Clear
2:12 PM 78.8 °F - 62.6 °F 57% 29.79 in 10.0 mi SE 15.0 mph - N/A   Clear
2:32 PM 80.6 °F 81.8 °F 62.6 °F 54% 29.79 in 10.0 mi SE 10.4 mph - N/A   Clear
2:52 PM 82.4 °F 83.4 °F 62.6 °F 51% 29.79 in 10.0 mi SSE 16.1 mph - N/A   Clear
3:12 PM 82.4 °F 83.9 °F 64.4 °F 54% 29.78 in 10.0 mi SE 12.7 mph 20.7 mph N/A   Scattered Clouds
3:32 PM 80.6 °F 82.3 °F 64.4 °F 58% 29.78 in 10.0 mi ESE 11.5 mph - N/A   Scattered Clouds
3:52 PM 82.4 °F 83.4 °F 62.6 °F 51% 29.78 in 10.0 mi SE 15.0 mph - N/A   Scattered Clouds
4:12 PM 84.2 °F 84.4 °F 60.8 °F 45% 29.77 in 10.0 mi South 16.1 mph - N/A   Mostly Cloudy
4:32 PM 84.2 °F 84.4 °F 60.8 °F 45% 29.77 in 7.0 mi South 17.3 mph 24.2 mph N/A   Scattered Clouds
4:52 PM 86.0 °F 86.1 °F 60.8 °F 43% 29.76 in 10.0 mi South 15.0 mph - N/A   Clear
5:12 PM 84.2 °F 84.4 °F 60.8 °F 45% 29.76 in 10.0 mi South 16.1 mph - N/A   Scattered Clouds
5:32 PM 84.2 °F 83.8 °F 59.0 °F 42% 29.76 in 10.0 mi South 15.0 mph - N/A   Scattered Clouds
5:52 PM 84.2 °F 84.4 °F 60.8 °F 45% 29.76 in 10.0 mi South 13.8 mph - N/A   Scattered Clouds
6:12 PM 84.2 °F 84.4 °F 60.8 °F 45% 29.75 in 10.0 mi South 9.2 mph - N/A   Scattered Clouds
6:32 PM 86.0 °F 84.9 °F 57.2 °F 37% 29.75 in 10.0 mi SW 8.1 mph - N/A   Mostly Cloudy
6:52 PM 82.4 °F 83.9 °F 64.4 °F 54% 29.74 in 10.0 mi SSE 18.4 mph 21.9 mph N/A Thunderstorm Mostly Cloudy
7:12 PM 80.6 °F 82.3 °F 64.4 °F 58% 29.74 in 10.0 mi SSE 17.3 mph - N/A Thunderstorm Scattered Clouds
7:32 PM 78.8 °F - 62.6 °F 57% 29.75 in 10.0 mi South 23.0 mph 27.6 mph N/A Thunderstorm Thunderstorm
7:52 PM 71.6 °F - 62.6 °F 73% 29.75 in 10.0 mi SSE 16.1 mph - N/A   Light Drizzle
8:12 PM 71.6 °F - 64.4 °F 78% 29.75 in 10.0 mi SE 6.9 mph - N/A   Scattered Clouds
8:32 PM 71.6 °F - 64.4 °F 78% 29.74 in 10.0 mi ESE 8.1 mph - N/A   Mostly Cloudy
8:52 PM 71.6 °F - 64.4 °F 78% 29.74 in 10.0 mi SE 9.2 mph - N/A Thunderstorm Mostly Cloudy
9:12 PM 71.6 °F - 64.4 °F 78% 29.73 in 10.0 mi East 10.4 mph - N/A   Light Drizzle
9:32 PM 71.6 °F - 64.4 °F 78% 29.74 in 10.0 mi ENE 12.7 mph - N/A   Mostly Cloudy
9:52 PM 71.6 °F - 64.4 °F 78% 29.74 in 10.0 mi East 11.5 mph - N/A   Overcast
10:12 PM 69.8 °F - 64.4 °F 83% 29.74 in 7.0 mi East 8.1 mph - N/A   Overcast
10:32 PM 69.8 °F - 64.4 °F 83% 29.74 in 7.0 mi ESE 6.9 mph - N/A   Overcast
10:52 PM 66.2 °F - 64.4 °F 94% 29.73 in 7.0 mi SSE 5.8 mph - N/A   Scattered Clouds
11:12 PM 66.2 °F - 62.6 °F 88% 29.74 in 7.0 mi SSE 6.9 mph - N/A   Clear
11:32 PM 66.2 °F - 62.6 °F 88% 29.73 in 7.0 mi SE 8.1 mph - N/A   Scattered Clouds
11:52 PM 66.2 °F - 60.8 °F 83% 29.71 in 7.0 mi ESE 5.8 mph - N/A   Clear